Regional Weather Roundup
Issued by NWS New Orleans/Baton Rouge, LA

Home | Current Version | Previous Version | Text Only | Print | Product List | Glossary On
Versions: 1 2 3 4 5 6 7 8 9 10 11 12 13 14 15 16 17 18 19 20 21 22 23 24 25 26 27 28 29 30 31 32 33 34 35 36 37 38 39 40 41 42 43 44 45 46 47 48 49 50
000
ASUS44 KLIX 270105
RWRLIX
NEW ORLEANS REGIONAL WEATHER ROUNDUP
NATIONAL WEATHER SERVICE NEW ORLEANS LA
700 PM CST MON JAN 26 2015

NOTE: "FAIR" INDICATES FEW OR NO CLOUDS BELOW 12,000 FEET WITH NO
      SIGNIFICANT WEATHER AND/OR OBSTRUCTIONS TO VISIBILITY.
      SKY/WX - SKY CONDITION AND SIGNIFICANT WEATHER.
      TMP - AIR TEMPERATURE.     DP    - DEWPOINT TEMPERATURE.
      RH  - RELATIVE HUMIDITY.   PRES  - PRESSURE.
      HI  - HEAT INDEX.          WCI   - WIND CHILL INDEX.

*  THESE STATIONS ARE NOT NWS OR FAA STATIONS AND ARE NOT UNDER
   NWS QUALITY CONTROL.

LAZ038-040-048-061>063-065>067-069-270200-
SOUTHEAST LOUISIANA

CITY           SKY/WX    TMP DP  RH WIND       PRES   REMARKS
N.O. AUDUBON   NOT AVBL
N.O. INTL ARPT PTCLDY    53  36  52 NW6       30.10R
N.O. LAKEFRONT CLEAR     54  45  71 W8        30.11R
N.O. DOWNTOWN*   N/A     57  34  41 CALM      30.11R
SLIDELL        CLEAR     49  37  63 CALM      30.09R
BATON ROUGE    CLEAR     50  36  58 CALM      30.11R
BOOTHVILLE     CLEAR     50  43  77 W6        30.11R
BELLE CHASSE   PTCLDY    46  34  62 SW3       30.10R
BOGALUSA*        N/A     45  37  73 CALM      30.10S
GALLIANO*      CLEAR     53  40  60 MISG      30.11S
NEW ROADS*       N/A     49  37  64 CALM      30.11S
GONZALES*        N/A     54  36  49 NW3       30.11S
HAMMOND*       CLEAR     46  37  71 CALM      30.12R
HOUMA*         CLEAR     54  36  51 W3        30.11S
PORT FOURCHON* CLEAR     55  46  71 W9G16     30.14S

$$

MSZ070-080>082-270200-
SOUTHERN MISSISSIPPI

CITY           SKY/WX    TMP DP  RH WIND       PRES   REMARKS
MCCOMB         CLEAR     46  35  65 CALM      30.08S
GULFPORT       CLEAR     47  36  65 CALM      30.08R
BILOXI         CLEAR     50  36  57 W1        30.08R
PASCAGOULA     CLEAR     43  36  76 CALM      30.08R
STENNIS ARPT*  CLEAR     45  36  70 CALM      30.09R

$$

COASTAL OBSERVATIONS
LAKE AND NEARSHORE STATIONS

STATION/POSITION TIME  TEMP    WIND        PRES    WAVE
                       AIR SEA DIR/SP/G            HT/PER
                 (UTC) (F)     (DEG/KT/KT) (MB)    (FT/S)
PASCAGOULA       0100   52     300/  6/  7 1018.0
WAVELAND YACHT   0100   54     310/  3/  4 1017.9
GRAND ISLE       0100   57 58  270/  6/  8 1019.7
SOUTHWEST PASS   0100   56 46  310/ 13/ 18 1019.8
NEW CANAL        0100   56 53  310/  3/  5 1019.6
SHELL BEACH      0100   54 53  270/  7/  8 1019.0

OFFSHORE STATIONS

STATION/POSITION TIME  TEMP    WIND        PRES    WAVE
                       AIR SEA DIR/SP/G            HT/PER
                 (UTC) (F)     (DEG/KT/KT) (MB)    (FT/S)

$$




USA.gov is the U.S. government's official web portal to all federal, state and local government web resources and services.